sat.trackr.live / text

‹ back to catalog

RADARSAT-2

NORAD 32382 · 2007-061A

PAYLOAD ACTIVE UNKNOWN

§ Identity

Operator
Country
CA
Launch date
2007-12-14
Launch site
TYMSC
Launch vehicle
Mass (kg)
RCS (m²)
8.38

Purposes: earth_obs

External: N2YO · Heavens-Above · Gunter

§ Orbital elements

Epoch: 2026-09-19T23:43:09.736896Z

Period
100.70 min
Inclination
98.5828°
Eccentricity
0.0001250
Mean motion
14.29983689 rev/d
Perigee alt
790.9 km
Apogee alt
792.7 km
Semi-major
7,169.9 km
B*
9.3623e-5
RAAN
268.5824°
Arg perigee
81.2260°
Mean anomaly
278.9064°
Rev number
97,950

§ Raw data

RADARSAT-21 32382U 07061A   26262.98830714  .00000198  00000+0  93623-4 0  99942 32382  98.5828 268.5824 0001250  81.2260 278.9064 14.29983689979507

JSON: /api/v1/satellites/32382 · /tle

For live sub-satellite position, see the globe view (requires WebGL).

§ Visibility from observer

Set your observer location to see the next 7 days of passes ≥ 10°. The values pass through the URL so the page stays shareable.

No JS? Fill the form by hand. The geolocation button needs JavaScript.

§ Radio — SatNOGS DB

ModeDescriptionDownlinkUplink
FM S-band telemetry 2.230 GHz

1 transmitter · refreshed weekly from db.satnogs.org